SCP
0 0 0 -0 -0 -0 -0 -0 -0 -0 -0 -0 -0 -0 -0 -0 -0 -0 -0 0 0 0 0 0 0 0 0 0 0 0 0 0
0 0 0 -0 -0 -0 -0 -0 -0 -0 -0 -0 -0 -0 -0 -0 -0 -0 0 0 0 0 0 0 0 0 0 0 0 0 0 0
0 0 0 0 -0 -0 -0 -0 -0 -0 -0 -0 -0 -0 -0 -0 -0 -0 0 0 0 0 0 0 0 0 0 0 0 0 0 0
0 0 0 0 0 0 -0 -0 -0 -0 -0 -0 -0 -0 -0 -0 -0 -0 0 0 0 0 0 0 0 0 0 0 0 0 0 0
0 0 0 0 0 0 0 0 0 0 -0 -0 -0 -0 -0 -0 -0 0 0 0 0 0 0 0 0 0 0 0 0 0 0 0
0 0 0 0 0 0 0 0 0 0 0 -0 -0 -0 -0 0 0 0 0 0 0 0 0 0 0 0 0 0 0 0 0 0
0 0 0 0 0 0 0 0 0 0 0 -0 -0 0 0 0 0 0 0 0 0 0 0 0 0 0 0 0 0 0 0 0
0 0 0 0 0 0 0 0 0 0 -0 -0 -0 0 -0 -0 -0 0 0 0 0 0 0 0 0 0 0 0 0 0 0 0
0 0 0 0 0 0 0 0 0 0 -0 -0 -0 0 0 -0 0 0 0 0 0 0 0 0 0 0 0 0 0 0 0 0
0 0 0 0 0 0 0 0 0 -0 -0 -0 -0 -0 0 0 -0 0 0 0 0 0 0 0 0 0 0 0 0 0 0 0
0 0 0 0 0 0 0 0 0 0 0 -0 -0 -0 0 0 0 0 0 0 0 0 0 0 0 0 0 0 0 0 0 0
1 2 1 0 2 2 1 1 1 0 0 0 0 0 0 0 0 0 0 0 0 0 1 1 0 0 0 1 0 0 1 1
1 1 1 2 4 3 2 1 1 0 1 0 1 0 0 0 0 0 0 0 1 1 1 1 1 1 1 0 0 1 1 0
1 2 3 3 2 4 2 1 1 1 1 0 0 0 0 0 0 0 1 1 1 1 1 1 1 1 1 1 1 1 0 0
4 3 5 5 1 1 1 1 1 1 0 0 1 1 1 1 1 1 1 1 1 1 1 1 0 0 0 0 0 0 0 0
6 5 3 2 2 2 1 1 1 0 1 2 2 1 1 1 1 1 1 1 1 0 0 0 0 0 0 0 0 0 0 0
2 4 5 4 2 1 1 0 0 0 2 2 1 1 1 0 0 0 0 0 0 0 0 0 0 0 0 0 0 0 0 0
-0 3 7 3 3 2 1 -0 1 2 2 0 0 0 0 0 0 0 0 0 0 0 0 0 0 0 0 0 0 0 0 0
0 0 3 3 1 1 0 1 1 1 1 0 0 0 0 0 0 0 0 0 0 0 0 0 0 0 0 0 0 0 0 0
Wind_Speed_500mb
66 58 54 53 53 51 48 43 37 31 29 31 35 34 29 27 23 20 17 15 13 10 9 9 8 8 10 10 11 11 10 8
65 57 55 52 51 50 47 42 37 33 30 31 34 32 28 24 20 17 14 11 8 6 6 6 7 9 10 10 12 14 14 13
63 56 54 52 49 46 43 40 37 34 32 33 35 31 26 21 17 13 11 7 4 5 5 6 8 9 11 13 13 15 18 21
59 58 55 53 50 44 41 40 39 37 35 34 34 29 24 19 14 9 6 3 1 4 7 9 10 12 14 16 17 18 19 25
56 56 56 53 50 47 45 43 41 39 37 34 31 27 22 17 12 6 3 3 6 9 11 12 13 15 17 18 18 17 18 23
54 56 55 54 51 48 46 44 42 39 36 34 31 26 21 14 9 4 5 5 8 11 15 17 18 18 22 20 12 17 20 20
61 62 57 53 51 49 46 43 41 40 36 32 28 24 17 13 12 6 3 7 10 18 14 17 17 18 15 13 13 18 22 25
51 62 60 56 52 49 46 43 39 36 34 31 27 23 23 17 11 8 9 10 14 15 21 21 18 22 18 23 28 36 44 38
51 55 54 51 48 43 42 36 34 32 28 26 23 24 23 20 10 7 14 12 14 12 18 22 24 28 27 28 36 39 29 26
59 53 51 51 50 40 29 16 29 30 20 19 15 10 16 20 19 14 11 18 19 18 23 23 27 31 31 31 36 39 40 39
64 66 58 55 64 47 42 23 25 22 15 16 11 5 5 15 17 15 19 14 6 10 15 22 29 32 30 33 47 45 36 40
81 80 69 61 68 42 45 31 23 28 22 19 16 8 9 7 19 18 14 16 10 11 19 27 36 30 33 25 44 48 40 51
91 87 76 69 76 62 55 50 46 41 45 39 19 13 13 16 16 15 7 9 8 17 20 25 35 36 35 36 35 40 36 44
84 83 76 69 76 67 62 52 48 44 40 35 31 23 13 5 6 4 6 12 23 25 29 33 38 44 47 43 41 48 52 52
80 70 71 74 64 61 59 53 51 42 41 32 27 24 29 15 13 15 18 19 21 24 28 33 35 38 43 46 47 47 51 53
69 74 71 62 53 56 64 62 52 43 43 42 33 28 35 29 22 25 22 22 31 24 26 29 32 36 37 45 52 58 58 50
34 80 80 71 59 53 50 45 46 47 41 40 44 34 34 26 24 29 21 11 9 9 17 22 28 34 37 42 47 49 39 65
96 88 90 79 53 52 50 54 45 43 48 43 40 35 26 20 11 10 8 4 7 13 19 26 29 37 42 41 36 31 25 23
84 53 77 75 68 60 58 41 48 53 59 47 34 22 18 17 18 18 14 9 12 13 16 24 32 42 44 38 36 37 34 38
Wind_Direction_500mb
153 153 150 151 153 152 152 152 149 142 136 140 146 143 139 133 128 126 117 109 101 99 91 72 56 42 30 25 19 11 9 10
152 153 151 151 152 152 153 153 151 148 144 145 150 149 147 140 134 129 120 114 108 92 66 47 25 15 9 7 4 360 356 352
152 152 150 150 151 152 153 152 152 150 148 150 156 157 151 146 144 140 126 112 91 58 20 4 354 346 346 346 347 351 351 345
155 154 152 151 150 150 150 152 152 151 154 156 160 160 158 158 160 154 149 146 343 357 331 328 329 328 330 333 338 342 351 347
161 158 155 153 150 148 150 153 154 156 156 159 162 165 169 172 179 194 218 279 310 315 309 309 312 318 321 325 330 326 332 353
168 165 161 158 154 152 152 155 156 158 159 163 168 172 178 182 192 219 250 293 325 318 306 307 312 319 322 322 325 337 312 332
173 170 168 164 162 158 159 159 160 161 162 166 169 171 166 167 163 123 45 360 16 4 332 328 307 317 331 335 305 308 311 312
176 173 174 171 170 167 166 166 166 165 167 169 171 168 157 146 135 27 22 25 349 345 2 351 329 318 313 317 317 327 308 296
184 178 176 173 175 168 169 177 175 175 177 181 181 174 167 165 162 190 267 306 325 308 324 314 316 330 325 315 317 316 314 312
183 179 179 166 170 176 173 182 182 158 141 144 141 131 172 171 177 193 215 245 276 293 298 306 310 313 306 304 302 305 308 305
185 185 182 168 166 183 189 177 153 158 150 167 163 80 125 175 176 198 244 231 266 263 282 279 278 286 295 306 307 298 302 300
183 184 181 172 172 164 180 175 189 178 179 173 196 195 203 224 212 219 236 244 269 284 300 292 298 312 302 293 318 291 308 303
181 183 180 178 179 171 173 170 184 180 180 178 172 192 255 265 223 233 252 202 250 269 272 276 284 290 311 327 291 289 293 289
188 187 187 183 186 184 182 185 192 193 193 173 182 204 220 154 148 286 286 243 247 256 267 278 284 292 298 305 301 297 294 294
196 190 183 179 186 187 191 194 190 180 189 179 181 190 208 199 198 244 254 259 272 275 281 285 289 302 315 317 315 309 302 302
193 180 182 178 186 181 182 183 183 176 167 170 179 190 193 208 215 233 256 270 279 287 294 305 314 319 326 332 329 320 320 317
203 195 196 195 181 180 182 181 177 159 168 176 181 197 215 224 247 264 253 247 271 317 330 338 340 338 336 342 341 332 332 322
300 209 198 189 179 171 175 178 183 175 176 179 190 203 217 249 188 126 109 108 35 10 351 351 347 347 344 339 340 357 344 323
256 283 204 181 172 165 161 177 180 176 176 185 191 207 193 158 132 114 97 46 12 9 353 354 352 352 349 347 346 345 334 330
Wind_Speed_850mb
66 58 54 53 53 51 48 43 37 31 29 31 35 34 29 27 23 20 17 15 13 10 9 9 8 8 10 10 11 11 10 8
65 57 55 52 51 50 47 42 37 33 30 31 34 32 28 24 20 17 14 11 8 6 6 6 7 9 10 10 12 14 14 13
63 56 54 52 49 46 43 40 37 34 32 33 35 31 26 21 17 13 11 7 4 5 5 6 8 9 11 13 13 15 18 21
59 58 55 53 50 44 41 40 39 37 35 34 34 29 24 19 14 9 6 3 1 4 7 9 10 12 14 16 17 18 19 25
56 56 56 53 50 47 45 43 41 39 37 34 31 27 22 17 12 6 3 3 6 9 11 12 13 15 17 18 18 17 18 23
54 56 55 54 51 48 46 44 42 39 36 34 31 26 21 14 9 4 5 5 8 11 15 17 18 18 22 20 12 17 20 20
61 62 57 53 51 49 46 43 41 40 36 32 28 24 17 13 12 6 3 7 10 18 14 17 17 18 15 13 13 18 22 25
51 62 60 56 52 49 46 43 39 36 34 31 27 23 23 17 11 8 9 10 14 15 21 21 18 22 18 23 28 36 44 38
51 55 54 51 48 43 42 36 34 32 28 26 23 24 23 20 10 7 14 12 14 12 18 22 24 28 27 28 36 39 29 26
59 53 51 51 50 40 29 16 29 30 20 19 15 10 16 20 19 14 11 18 19 18 23 23 27 31 31 31 36 39 40 39
64 66 58 55 64 47 42 23 25 22 15 16 11 5 5 15 17 15 19 14 6 10 15 22 29 32 30 33 47 45 36 40
81 80 69 61 68 42 45 31 23 28 22 19 16 8 9 7 19 18 14 16 10 11 19 27 36 30 33 25 44 48 40 51
91 87 76 69 76 62 55 50 46 41 45 39 19 13 13 16 16 15 7 9 8 17 20 25 35 36 35 36 35 40 36 44
84 83 76 69 76 67 62 52 48 44 40 35 31 23 13 5 6 4 6 12 23 25 29 33 38 44 47 43 41 48 52 52
80 70 71 74 64 61 59 53 51 42 41 32 27 24 29 15 13 15 18 19 21 24 28 33 35 38 43 46 47 47 51 53
69 74 71 62 53 56 64 62 52 43 43 42 33 28 35 29 22 25 22 22 31 24 26 29 32 36 37 45 52 58 58 50
34 80 80 71 59 53 50 45 46 47 41 40 44 34 34 26 24 29 21 11 9 9 17 22 28 34 37 42 47 49 39 65
96 88 90 79 53 52 50 54 45 43 48 43 40 35 26 20 11 10 8 4 7 13 19 26 29 37 42 41 36 31 25 23
84 53 77 75 68 60 58 41 48 53 59 47 34 22 18 17 18 18 14 9 12 13 16 24 32 42 44 38 36 37 34 38
Wind_Direction_850mb
153 153 150 151 153 152 152 152 149 142 136 140 146 143 139 133 128 126 117 109 101 99 91 72 56 42 30 25 19 11 9 10
152 153 151 151 152 152 153 153 151 148 144 145 150 149 147 140 134 129 120 114 108 92 66 47 25 15 9 7 4 360 356 352
152 152 150 150 151 152 153 152 152 150 148 150 156 157 151 146 144 140 126 112 91 58 20 4 354 346 346 346 347 351 351 345
155 154 152 151 150 150 150 152 152 151 154 156 160 160 158 158 160 154 149 146 343 357 331 328 329 328 330 333 338 342 351 347
161 158 155 153 150 148 150 153 154 156 156 159 162 165 169 172 179 194 218 279 310 315 309 309 312 318 321 325 330 326 332 353
168 165 161 158 154 152 152 155 156 158 159 163 168 172 178 182 192 219 250 293 325 318 306 307 312 319 322 322 325 337 312 332
173 170 168 164 162 158 159 159 160 161 162 166 169 171 166 167 163 123 45 360 16 4 332 328 307 317 331 335 305 308 311 312
176 173 174 171 170 167 166 166 166 165 167 169 171 168 157 146 135 27 22 25 349 345 2 351 329 318 313 317 317 327 308 296
184 178 176 173 175 168 169 177 175 175 177 181 181 174 167 165 162 190 267 306 325 308 324 314 316 330 325 315 317 316 314 312
183 179 179 166 170 176 173 182 182 158 141 144 141 131 172 171 177 193 215 245 276 293 298 306 310 313 306 304 302 305 308 305
185 185 182 168 166 183 189 177 153 158 150 167 163 80 125 175 176 198 244 231 266 263 282 279 278 286 295 306 307 298 302 300
183 184 181 172 172 164 180 175 189 178 179 173 196 195 203 224 212 219 236 244 269 284 300 292 298 312 302 293 318 291 308 303
181 183 180 178 179 171 173 170 184 180 180 178 172 192 255 265 223 233 252 202 250 269 272 276 284 290 311 327 291 289 293 289
188 187 187 183 186 184 182 185 192 193 193 173 182 204 220 154 148 286 286 243 247 256 267 278 284 292 298 305 301 297 294 294
196 190 183 179 186 187 191 194 190 180 189 179 181 190 208 199 198 244 254 259 272 275 281 285 289 302 315 317 315 309 302 302
193 180 182 178 186 181 182 183 183 176 167 170 179 190 193 208 215 233 256 270 279 287 294 305 314 319 326 332 329 320 320 317
203 195 196 195 181 180 182 181 177 159 168 176 181 197 215 224 247 264 253 247 271 317 330 338 340 338 336 342 341 332 332 322
300 209 198 189 179 171 175 178 183 175 176 179 190 203 217 249 188 126 109 108 35 10 351 351 347 347 344 339 340 357 344 323
256 283 204 181 172 165 161 177 180 176 176 185 191 207 193 158 132 114 97 46 12 9 353 354 352 352 349 347 346 345 334 330